PST,Max TemperatureF,Mean TemperatureF,Min TemperatureF,Max Dew PointF,MeanDew PointF,Min DewpointF,Max Humidity, Mean Humidity, Min Humidity, Max Sea Level PressureIn, Mean Sea Level PressureIn, Min Sea Level PressureIn, Max VisibilityMiles, Mean VisibilityMiles, Min VisibilityMiles, Max Wind SpeedMPH, Mean Wind SpeedMPH, Max Gust SpeedMPH,PrecipitationIn, CloudCover, Events, WindDirDegrees
2013-1-1,38,20,1,12,4,-4,84,51,18,30.54,30.33,30.17,10,10,8,16,2,23,0.00,0,,158
2013-1-2,44,20,-4,23,6,-8,83,57,30,30.52,30.40,30.27,10,10,8,12,3,13,0.00,0,,186
2013-1-3,45,22,-2,24,9,-6,86,59,31,30.47,30.36,30.24,10,9,7,8,3,10,0.00,0,,188
2013-1-4,45,25,4,30,19,-2,92,71,49,30.48,30.28,30.20,10,5,0,9,2,10,0.00,0,Fog,175
2013-1-5,48,28,8,28,17,4,83,58,33,30.36,30.19,29.96,10,10,8,16,4,29,0.00,1,,197
2013-1-6,34,28,21,27,23,14,92,69,45,30.14,30.01,29.92,10,6,0,16,3,21,0.14,7,Fog-Snow,41
2013-1-7,43,27,11,29,21,7,92,72,52,30.36,30.25,30.15,10,4,0,8,1,10,0.00,1,Fog,190
2013-1-8,46,31,15,32,21,11,92,75,58,30.40,30.30,30.25,10,6,0,9,2,12,0.00,0,Fog,179
2013-1-9,51,34,16,29,21,13,88,59,29,30.25,29.94,29.65,10,5,0,28,7,45,0.11,4,Fog-Snow,196
2013-1-10,28,16,4,18,11,4,83,62,40,30.05,29.87,29.76,10,6,0,15,2,21,0.06,5,Snow,51
2013-1-11,25,14,3,13,8,0,80,60,40,30.16,30.02,29.90,10,8,0,12,1,17,0.05,6,Snow,134
2013-1-12,28,8,-12,7,-5,-17,87,58,29,30.33,30.22,30.10,10,10,8,9,2,12,0.00,0,,181
2013-1-13,28,7,-14,2,-8,-21,87,56,25,30.44,30.30,30.18,10,10,8,17,4,22,T,0,,167
2013-1-14,34,12,-11,14,0,-16,82,55,28,30.55,30.44,30.32,10,9,7,15,3,21,0.00,0,,183
2013-1-15,47,26,5,22,13,3,88,58,28,30.66,30.53,30.42,10,8,1,16,3,21,0.00,0,,195
2013-1-16,49,29,8,20,11,3,84,53,21,30.70,30.58,30.46,10,9,3,8,1,12,0.00,0,,193
2013-1-17,46,24,2,19,8,-4,80,54,28,30.66,30.51,30.38,10,9,6,10,2,24,0.00,0,,175
2013-1-18,45,23,1,21,9,-4,80,55,29,30.56,30.45,30.35,10,10,8,8,3,9,0.00,0,,178
2013-1-19,46,23,0,17,8,-5,80,54,28,30.59,30.47,30.36,10,9,7,9,2,9,0.00,0,,163
2013-1-20,46,24,1,19,8,-4,79,54,29,30.58,30.46,30.35,10,9,6,16,3,24,0.00,0,,191
2013-1-21,51,29,7,19,11,1,80,51,21,30.51,30.38,30.27,10,10,8,26,3,33,0.00,0,,118
2013-1-22,49,30,10,28,18,5,84,62,39,30.39,30.27,30.16,10,10,8,9,2,10,0.00,0,,180
2013-1-23,52,38,24,29,16,4,75,45,14,30.17,30.10,30.05,10,10,10,22,3,31,T,2,,202
2013-1-24,41,38,34,36,33,30,92,84,75,30.24,30.19,30.08,10,4,0,28,0,54,0.28,8,Fog-Rain-Snow,143
2013-1-25,47,40,32,38,33,29,96,81,65,30.22,30.17,30.02,10,4,0,12,1,14,0.01,7,Fog-Rain,109
2013-1-26,45,36,27,31,26,21,92,68,43,30.06,29.92,29.80,10,6,0,25,5,36,0.01,4,Fog-Snow,195
2013-1-27,33,26,19,21,18,14,81,67,53,30.05,29.93,29.78,10,5,0,26,5,35,0.03,8,Snow,169
2013-1-28,33,21,9,23,16,5,88,67,45,30.25,30.13,30.05,10,8,2,13,3,17,0.02,7,Snow,149
2013-1-29,47,38,29,27,25,20,72,59,45,30.38,30.26,30.16,10,10,10,22,5,36,0.00,3,,30
2013-1-30,49,36,22,29,22,18,88,62,36,30.44,30.38,30.32,10,10,10,13,3,33,0.00,0,,171
2013-1-31,49,33,17,29,19,12,84,59,34,30.48,30.36,30.27,10,10,10,12,2,12,0.00,0,,158